STARLINK-32781, 62848

Orbit data source: Space-Track

STARLINK-32781, 62848 is a payload satellite owned by SpaceX/Seattle (US) in LEO that was launched on Mon, 27 Jan 2025 UTC via an FALCON 9 launch vehicle from the Air Force Eastern Test Range (AFETR). Payload-class satellites include a variety of spacecraft equipped with specific instruments for various scientific and technological missions. These include communications satellites like Starlink; space stations such as the ISS; scientific satellites like the Hubble; Earth observation satellites from companies like Planet Labs, Umbra, and HawkEye 360; GPS; miniature CubeSats for education and research; and military/defense satellites.

Loading next visibility...
Identifier
62848, 2025-019V
Orbit
LEO
Last TLE update
12 hours ago
Origin
Manufacturer
SpaceX/Seattle
Mission
Operational Commercial Communications
Bus & Motor
STARLINK V2M, Unknown motor
Mass
730 kg wet, ~700 kg dry
Launch date (UTC)
2025-01-27 (5 months ago)
Launch vehicle
FALCON 9
Launch site
Air Force Eastern Test Range (AFETR)
Object type
Payload
Rocket body
Debris
Shape & HBR
Box + 2 Pan, 29 m
Radar Cross Section
33.884 m², Large (>1 m²)

Expand to show TLE details & history

TLE from 12 hours ago
0 STARLINK-32781
1 62848U 25019V   25188.83656587  .00019181  00000-0  70421-3 0  9994
2 62848  42.9989  31.7977 0000323 143.3044 216.7829 15.27604588 24807
Epoch: 2025-07-07T20:04Z
TLE epoch observation values (Epoch: 2025-07-07T20:04:39.291Z)
Latitude
-0.00006°
Longitude
164.59374°
Altitude
482.928 km
Speed
7.626 km/s
True Right ascension
02h 07m 11s
True Declination
0° 00' 00"
Sunlit
Object was in daylight at epoch
Visualization orbit readout
Latitude
-22.58412°
Longitude
135.34003°
Altitude
488.431 km
Speed
7.621 km/s
Apparent Right ascension
03h 25m 40s
Apparent Declination
-51° 52' 30"
Sunlit
Object is in daylight
Visualization observer readout
Local Sidereal Time
20:34:41
Azimuth
130.591° SE
Elevation
-37.535°
Doppler factor
1
Orbital elements
Apogee altitude
485.143 km
Perigee altitude
484.699 km
Semi-major axis
6,863.058 km
Eccentricity
0.00003
Inclination
42.9989°
RAAN
31.7977°
Arg. of periapsis
143.3044°
True anomaly
Unknown
Mean anomaly
216.7829°
Eccentric anomaly
Unknown
Mean motion
3.81739 °/min
Orbital period
94.31 mins
BSTAR
0.00070421
Loading maneuver chart data...
Loading SW <> Apogee altitude chart data...
Loading historical data...
Loading historical data...
Loading historical data...
Loading historical data...
Loading historical data...
Loading historical data...
Loading historical data...

STARLINK-32781 Visibility forecast

Observer location: undefined°, undefined°

Span
Click to sort rows by Start time (UTC) header in descending order
Start Az.
Max El. time (UTC)
Max El. Az.
Max El.
End time (UTC)
End Az.
6 mins2025-07-08 16:40:58.200Z211.616° SW2025-07-08 16:43:58.200Z139.586° SSE29.592°2025-07-08 16:46:58.200Z84.322° E
6 mins2025-07-08 18:19:58.200Z265.13° W2025-07-08 18:22:58.200Z34.212° NE41.096°2025-07-08 18:25:58.200Z70.324° E
5 mins2025-07-08 19:59:58.200Z299.183° NW2025-07-08 20:01:58.200Z21.8° NNE38.095°2025-07-08 20:04:58.200Z81.079° E
5 mins2025-07-08 21:38:58.200Z280.978° WNW2025-07-08 21:40:58.200Z172.727° S43.291°2025-07-08 21:43:58.200Z118.414° SE
|